Back to catalog

SL-16 DEB

AliveLEO
NORAD 22609·DEBRIS·🇷🇺 Russia

Launched Mar 26, 1993 from Baikonur Cosmodrome

Loading…

Next Passes (next 24 hours)

TLE

FreshSource: Space-Track

Epoch: Sep 14, 2026, 13:20 UTC

1 22609U 93016T   26257.55603872  .00000145  00000-0  14438-3 0  9999
2 22609  70.9912 294.2959 0134113  40.0509 110.7438 13.89379179692503

Track SL-16 DEB in real time with AllMySat

Download on the App Store